Regional Weather Roundup
Issued by NWS

Home | Current Version | Previous Version | Graphics & Text | Print | Product List | Glossary On
Versions: 1 2 3 4 5 6 7 8 9 10 11 12 13 14 15 16 17 18 19 20 21 22 23 24 25 26 27 28 29 30 31 32 33 34 35 36 37 38 39 40 41 42 43 44 45 46 47 48 49 50
000
ASUS43 KMKX 210700
RWRWI

WISCONSIN REGIONAL WEATHER ROUNDUP
NATIONAL WEATHER SERVICE MILWAUKEE/SULLIVAN WI
200 AM CDT SUN SEP 21 2014

NOTE: "FAIR" INDICATES FEW OR NO CLOUDS BELOW 12,000 FEET WITH NO
SIGNIFICANT WEATHER AND/OR OBSTRUCTIONS TO VISIBILITY.

WIZ001-002-006>008-014>016-023>028-210800-
NORTHWEST WISCONSIN

CITY           SKY/WX    TMP DP  RH WIND       PRES   REMARKS
SUPERIOR ARPT  RAIN      54  51  92 NW12G18   29.77R
ASHLAND        CLOUDY    54  52  93 N9        29.73R
HAYWARD        LGT RAIN  53  52  96 VRB7      29.73R
SIREN          CLOUDY    50  48  93 NW13      29.81R
RICE LAKE      CLOUDY    51  48  89 NW13G25   29.77R
LADYSMITH      CLOUDY    55  52  91 W13G22    29.73R
EAU CLAIRE     CLOUDY    56  48  74 W15G23    29.75S
MENOMONIE      PTSUNNY   57  49  75 W23G29    29.77S
NEW RICHMOND   PTCLDY    54  47  77 NW12      29.82R
OSCEOLA        PTCLDY    55  47  77 NW13G23   29.85R
$$

WIZ003>005-009-010-017-018-210800-
NORTH CENTRAL WISCONSIN

CITY           SKY/WX    TMP DP  RH WIND       PRES   REMARKS
WOODRUFF       DRIZZLE   53  51  94 CALM      29.69S
RHINELANDER    CLOUDY    52  51  97 NW3       29.68F
EAGLE RIVER    LGT RAIN  53  51  94 N7        29.67F
LAND O LAKES   HVY RAIN  53  52  96 NW5       29.70R
PHILLIPS       RAIN      52  52 100 NW6       29.69S
TOMAHAWK       HVY RAIN  51  50  96 CALM      29.69F
MEDFORD        CLOUDY    53  51  94 W12G20    29.70S
MERRILL        LGT RAIN  53  53  99 CALM      29.68F
$$

WIZ029-030-035-036-043>047-210800-
CENTRAL WISCONSIN

CITY           SKY/WX    TMP DP  RH WIND       PRES   REMARKS
WAUSAU         RAIN      55  53  93 W10       29.67F FOG
MOSINEE        DRIZZLE   54  54 100 W10G16    29.70F
MARSHFIELD     CLOUDY    55  51  86 W17G25    29.71F
STEVENS POINT  CLOUDY    54  52  93 W9        29.71S
WAUPACA        MOCLDY    57  56  95 W8        29.71R
WAUTOMA        NOT AVBL
WISC RAPIDS    MOCLDY    55  52  89 W10       29.73F
CAMP DOUGLAS   NOT AVBL
$$

WIZ011>013-019>022-031-037>040-048>050-210800-
NORTHEAST WISCONSIN

CITY           SKY/WX    TMP DP  RH WIND       PRES   REMARKS
ANTIGO         CLOUDY    52  51  98 W9        29.69S
STURGEON BAY   CLOUDY    57  54  88 NE8       29.64F
GREEN BAY      PTCLDY    56  55  97 W9        29.66F
MANITOWOC      NOT AVBL
APPLETON       CLEAR     54  52  94 W7        29.69S
CLINTONVILLE   MOCLDY    54  54 100 W3        29.68F
OSHKOSH        PTCLDY    58  55  90 W12       29.69S
$$

WIZ032>034-041-042-053>061-210800-
SOUTHWEST WISCONSIN

CITY           SKY/WX    TMP DP  RH WIND       PRES   REMARKS
LA CROSSE      CLEAR     61  50  67 NW10      29.79F
SPARTA         CLEAR     54  52  94 SW3       29.78F
VIROQUA        FAIR      55  53  95 W12G17    29.80F
BOSCOBEL       CLEAR     59  52  77 SW5       29.82F
PRAIRIE DU CHI CLEAR     56  52  85 W3        29.85S
PLATTEVILLE    FAIR      57  54  90 W10       29.85R
$$

WIZ056-057-062-063-064-067-068-210800-
SOUTH CENTRAL WISCONSIN

CITY           SKY/WX    TMP DP  RH WIND       PRES   REMARKS
BARABOO/DELLS  FAIR      55  50  83 W10       29.77R
LONE ROCK      NOT AVBL
WATERTOWN      MOCLDY    59  58  96 W8        29.73R
MADISON        CLEAR     58  52  80 NW9G18    29.76S
MIDDLETON      FAIR      59  55  85 NW15G24   29.78R
MONROE         PTCLDY    59  54  82 W17G25    29.79R
JANESVILLE     PTCLDY    61  54  77 NW16G25   29.76R
$$

WIZ051-052-058>065-066-070>072-210800-
SOUTHEAST WISCONSIN

CITY           SKY/WX    TMP DP  RH WIND       PRES   REMARKS
MILWAUKEE      MOCLDY    63  58  83 W16G24    29.69R
WAUKESHA       CLOUDY    59  55  88 W14G26    29.72S
MILWAUKEE/TIMM MOCLDY    59  55  88 W16       29.70R
RACINE         CLOUDY    63  59  87 W10G20    29.70R
BURLINGTON     CLOUDY    60  58  91 NW18G26   29.72S
KENOSHA        CLOUDY    62  59  90 W13       29.71R
FOND DU LAC    PTCLDY    58  55  90 W13G20    29.70S
SHEBOYGAN      CLEAR     57  54  89 W12       29.66S
WEST BEND      CLEAR     57  54  88 W9G16     29.69S
JUNEAU         CLOUDY    58  56  93 W7G17     29.73S
$$

LSZ147-162-210800-
LAKE SUPERIOR

STATION/POSITION TIME  TEMP    WIND        PRES    WAVE
                       AIR SEA DIR/SP/G            HT/PER
                 (UTC) (F)     (DEG/KT/KT) (MB)    (FT/S)
W MID LAKE BUOY  0550   49 46   30/ 14/ 16 1006.6R   1/ 2
DEVILS ISLAND    0600   52      60/ 21/ 22 1006.8R
PORT WING        0600   55     320/  7/  8 1007.1
SAXON HARBOR     0640   56      10/ 11/ 13 1006.4R
$$

LMZ867-665-643>646-210800-
LAKE MICHIGAN

STATION/POSITION TIME  TEMP    WIND        PRES    WAVE
                       AIR SEA DIR/SP/G            HT/PER
                 (UTC) (F)     (DEG/KT/KT) (MB)    (FT/S)
N MID LAKE BUOY  0550   57 58   60/ 12/ 14 1003.8F   2/ 6
NORTHPORT PIER   0600   56      60/  6/  7 1004.4F
SISTER BAY       0612             CALM       N/A
KEWAUNEE LAKESHO 0600   58     320/  4/ 11 1002.9F
SHEBOYGAN LAKESH 0600   60 54  290/  8/ 10 1004.1F
PORT WASHINGTON  0600   61     290/  4/  9 1005.4F
ATWATER BUOY     0600   59     270/  8/ 10 1006.1F
MILWAUKEE LAKESH 0600   62     290/  9/ 12   N/A
S MID LAKE BUOY  0550   66 64  210/ 10/ 12 1004.2F   1/ 3
KENOSHA   LAKESH 0600   65     240/  6/  8 1004.7F
$$

TC  - TEMPERATURE IN CELSIUS
VSB - VISIBILITY IN STATUTE MILES
WCI - WIND CHILL INDEX
HX  - HEAT INDEX



USA.gov is the U.S. government's official web portal to all federal, state and local government web resources and services.